Location: Mahannah Oil Field
(37.4664°N, 96.6003°W)
Time: 15:26:32
(UTC+00:00)

Vanguard 2 Rocket - Pass Details

Date: 28 January 2021
Orbit: 554 x 3325 km, 32.9° (Epoch: 06 March)

Event Time Altitude Azimuth Distance (km) Brightness Sun altitude
Rises 15:32:11 0° 178° (S) 7,144 12.1 19.2°
Reaches altitude 10° 15:43:02 10° 152° (SSE) 6,273 12.9 20.7°
Maximum altitude 15:48:17 12° 136° (SE) 6,072 13.5 21.5°
Drops below altitude 10° 15:53:21 10° 120° (ESE) 6,060 12.7 22.1°
Sets 16:02:52 0° 94° (E) 6,575 11.9 23.4°
